1487246400.41,34266,14.0,74516.0,9.59,-29.39,-29.79,0,*79
1487246401.69,34267,14.0,74518.5,9.61,-29.29,-29.51,0,*78
1487246402.94,34268,14.0,74518.5,9.59,-29.35,-29.73,0,*71
1487246404.19,34269,14.0,74514.8,9.61,-28.97,-29.17,0,*70
1487246405.44,34270,14.0,74518.0,9.57,-29.13,-29.57,0,*74
1487246406.67,34271,14.0,74516.3,9.57,-29.45,-29.83,0,*7F
1487246407.93,34272,14.0,74516.5,9.55,-29.39,-29.73,0,*7A
1487246409.17,34273,14.0,74514.5,9.57,-28.75,-29.07,0,*73
1487246410.38,34274,14.0,74516.8,9.55,-28.79,-29.07,0,*7A
1487246411.66,34275,14.0,74512.3,9.57,-28.05,-28.09,0,*7D
1487246412.91,34276,14.0,74512.3,9.57,-27.89,-28.05,0,*79
1487246414.19,34277,14.0,74516.0,9.57,-28.25,-28.59,0,*78
1487246415.44,34278,14.0,74514.5,9.57,-28.25,-28.37,0,*7F
1487246416.67,34279,14.0,74510.8,9.59,-28.31,-28.47,0,*72
1487246417.89,34280,14.0,74514.0,9.59,-27.89,-28.21,0,*78
1487246419.1,34281,14.0,74514.0,9.59,-27.67,-27.89,0,*74
1487246420.33,34282,14.0,74514.0,9.61,-27.07,-27.29,0,*70
1487246421.57,34283,14.0,74514.3,9.63,-26.97,-27.29,0,*7B
1487246422.77,34284,14.0,74516.8,9.63,-27.51,-27.67,0,*7D
1487246423.99,34285,14.0,74512.8,9.63,-27.45,-27.67,0,*79
1487246425.23,34286,14.0,74514.0,9.63,-27.35,-27.45,0,*7D
1487246426.48,34287,14.0,74514.8,9.65,-26.87,-26.93,0,*78
1487246427.73,34288,14.0,74514.5,9.67,-26.81,-27.19,0,*70
1487246428.98,34289,14.06,74516.0,9.69,-27.13,-27.35,0,*7B
1487246430.21,34290,14.0,74514.5,9.67,-27.83,-28.15,0,*79
1487246431.45,34291,14.0,74516.5,9.69,-28.31,-28.59,0,*78
1487246432.68,34292,14.0,74516.0,9.67,-28.15,-28.43,0,*78
1487246433.93,34293,14.06,74518.3,9.69,-28.53,-28.91,0,*7A
1487246435.18,34294,14.0,74516.3,9.69,-28.53,-28.91,0,*7D
1487246436.41,34295,14.0,74518.5,9.67,-28.69,-29.01,0,*73
1487246437.61,34296,14.0,74516.0,9.67,-28.53,-28.85,0,*74
1487246438.86,34297,14.0,74516.5,9.67,-27.99,-28.43,0,*76
1487246440.1,34298,14.0,74516.5,9.67,-28.43,-28.75,0,*74
1487246441.35,34299,14.0,74516.5,9.69,-28.69,-29.01,0,*71
1487246442.57,34300,14.0,74516.8,9.67,-28.15,-28.59,0,*79
1487246443.85,34301,14.06,74522.3,9.69,-28.59,-29.01,0,*72
1487246445.06,34302,14.0,74518.8,9.69,-28.69,-29.07,0,*74
1487246446.29,34303,14.06,74520.3,9.67,-28.53,-28.91,0,*7C
1487246447.52,34304,14.0,74516.5,9.69,-28.53,-28.85,0,*70
1487246448.75,34305,14.0,74518.3,9.67,-28.05,-28.37,0,*75
1487246449.95,34306,14.0,74518.8,9.67,-27.89,-28.37,0,*7D
1487246451.17,34307,14.06,74518.8,9.67,-27.71,-28.05,0,*7A
1487246452.43,34308,14.0,74516.8,9.69,-28.21,-28.69,0,*7B
1487246453.71,34309,14.06,74518.0,9.69,-28.21,-28.59,0,*79
1487246454.98,34310,14.0,74516.5,9.69,-28.21,-28.59,0,*71
1487246456.23,34311,14.0,74518.5,9.67,-28.43,-28.91,0,*7E
1487246457.46,34312,14.06,74518.5,9.67,-28.53,-28.91,0,*7C
1487246458.66,34313,14.06,74518.5,9.71,-28.53,-28.97,0,*7C
1487246459.93,34314,14.06,74520.0,9.69,-28.59,-29.01,0,*76
1487246461.17,34315,14.0,74516.3,9.67,-28.43,-28.75,0,*70
1487246462.4,34316,14.06,74520.0,9.67,-28.31,-28.59,0,*78
1487246463.66,34317,14.0,74520.0,9.69,-28.43,-28.75,0,*7C
1487246464.91,34318,14.06,74520.5,9.69,-28.31,-28.43,0,*73
1487246466.18,34319,14.06,74520.5,9.69,-28.05,-28.43,0,*75
1487246467.45,34320,14.0,74518.3,9.69,-28.43,-28.75,0,*78
1487246468.67,34321,14.0,74518.5,9.71,-28.31,-28.63,0,*72
1487246469.9,34322,14.06,74524.3,9.73,-28.15,-28.37,0,*74
1487246471.12,34323,14.06,74522.3,9.71,-28.31,-28.63,0,*70
1487246472.37,34324,14.06,74522.5,9.69,-27.89,-28.21,0,*74
1487246473.6,34325,14.06,74520.0,9.71,-27.93,-28.25,0,*73
1487246474.79,34326,14.06,74522.3,9.71,-28.15,-28.53,0,*70
1487246475.99,34327,14.0,74518.5,9.71,-28.97,-29.45,0,*7D
1487246477.26,34328,14.0,74520.0,9.73,-28.79,-29.29,0,*7A
1487246478.5,34329,14.0,74522.5,9.71,-29.35,-29.83,0,*70
1487246479.75,34330,14.0,74518.3,9.69,-29.23,-29.89,0,*7C
1487246480.98,34331,14.0,74522.0,9.67,-29.01,-29.57,0,*70
1487246482.26,34332,14.06,74526.3,9.69,-29.39,-29.89,0,*75
1487246483.52,34333,14.06,74524.0,9.67,-29.39,-29.73,0,*7F
1487246484.74,34334,14.0,74522.0,9.67,-30.11,-30.55,0,*76
1487246485.97,34335,14.06,74522.5,9.65,-29.57,-29.95,0,*7B
1487246487.23,34336,14.06,74522.5,9.65,-29.83,-30.17,0,*73
1487246488.45,34337,14.06,74522.5,9.63,-28.63,-28.97,0,*7A
1487246489.68,34338,14.0,74520.0,9.65,-29.07,-29.45,0,*7E
1487246490.91,34339,14.06,74522.8,9.63,-29.67,-30.05,0,*73
1487246492.15,34340,14.0,74520.3,9.63,-30.05,-30.55,0,*74
1487246493.39,34341,14.06,74522.0,9.63,-30.05,-30.55,0,*75
1487246494.64,34342,14.0,74518.8,9.61,-31.05,-31.73,0,*70
1487246495.84,34343,14.06,74526.0,9.59,-30.23,-30.67,0,*7B
1487246497.06,34344,14.06,74520.3,9.59,-30.45,-30.95,0,*71
1487246498.29,34345,14.0,74520.8,9.55,-30.27,-30.61,0,*73
1487246499.51,34346,14.06,74526.0,9.55,-31.01,-31.51,0,*77
1487246500.73,34347,14.0,74522.5,9.57,-30.11,-30.45,0,*70
1487246501.99,34348,14.06,74522.5,9.53,-29.83,-30.05,0,*7C
1487246503.24,34349,14.06,74520.3,9.53,-29.79,-29.89,0,*74
1487246504.46,34350,14.0,74518.5,9.49,-29.95,-30.11,0,*7C
1487246505.69,34351,14.0,74520.5,9.53,-30.67,-31.05,0,*77
1487246506.93,34352,14.06,74522.0,9.49,-30.61,-31.01,0,*7D
1487246508.16,34353,14.06,74524.0,9.49,-30.23,-30.45,0,*7B
1487246509.4,34354,14.06,74522.8,9.49,-30.05,-30.27,0,*7C
1487246510.6,34355,14.06,74520.5,9.47,-31.01,-31.29,0,*79
1487246511.79,34356,14.0,74518.5,9.47,-30.23,-30.45,0,*70
1487246513.06,34357,14.06,74520.3,9.45,-29.57,-29.89,0,*70
1487246514.29,34358,14.06,74522.3,9.45,-29.95,-30.45,0,*79
1487246515.52,34359,14.06,74522.5,9.45,-30.67,-31.01,0,*7C
1487246516.75,34360,14.06,74520.3,9.43,-30.51,-30.83,0,*7E
1487246517.99,34361,14.06,74522.8,9.41,-31.29,-31.45,0,*78
1487246519.27,34362,14.06,74520.8,9.41,-31.11,-31.39,0,*7B
1487246520.52,34363,14.06,74520.3,9.39,-30.89,-31.17,0,*79
1487246521.72,34364,14.06,74520.8,9.43,-29.95,-30.27,0,*74
1487246522.92,34365,14.06,74522.8,9.37,-30.11,-30.45,0,*76
1487246524.14,34366,14.06,74522.3,9.37,-30.01,-30.23,0,*74
1487246525.36,34367,14.06,74522.5,9.35,-29.79,-30.11,0,*71
1487246526.57,34368,14.06,74520.0,9.37,-30.23,-30.55,0,*7B
1487246527.8,34369,14.06,74520.0,9.37,-30.45,-30.77,0,*7A
1487246529.05,34370,14.06,74520.3,9.37,-30.77,-31.11,0,*72
1487246530.29,34371,14.06,74520.8,9.33,-31.39,-31.57,0,*7E
1487246531.51,34372,14.06,74520.8,9.33,-31.33,-31.57,0,*77
1487246532.73,34373,14.06,74520.0,9.33,-31.33,-31.57,0,*76
1487246533.98,34374,14.06,74522.0,9.27,-30.17,-30.27,0,*75
1487246535.23,34375,14.06,74520.0,9.27,-30.05,-30.27,0,*77
1487246536.45,34376,14.06,74522.5,9.31,-30.67,-31.05,0,*76
1487246537.73,34377,14.06,74520.3,9.27,-30.95,-31.23,0,*79
1487246538.96,34378,14.06,74522.0,9.25,-30.77,-31.05,0,*7C
1487246540.21,34379,14.06,74522.8,9.23,-30.61,-30.83,0,*73
1487246541.44,34380,14.06,74522.3,9.23,-30.23,-30.33,0,*78
1487246542.69,34381,14.06,74516.3,9.25,-29.73,-30.01,0,*73
1487246543.92,34382,14.06,74518.5,9.23,-29.95,-30.23,0,*7E
1487246545.14,34383,14.06,74518.0,9.23,-29.61,-29.79,0,*73
1487246546.37,34384,14.06,74518.5,9.25,-29.57,-29.73,0,*7D
1487246547.6,34385,14.06,74516.5,9.23,-30.83,-31.17,0,*70
1487246548.85,34386,14.06,74516.5,9.23,-30.33,-30.51,0,*7B
1487246550.08,34387,14.0,74516.0,9.23,-30.23,-30.33,0,*7F
1487246551.28,34388,14.06,74516.3,9.21,-30.23,-30.33,0,*72
1487246552.48,34389,14.0,74512.8,9.21,-30.67,-31.01,0,*73
1487246553.71,34390,14.06,74518.0,9.21,-29.95,-30.05,0,*7B
1487246554.96,34391,14.06,74518.5,9.21,-29.29,-29.29,0,*7B
1487246556.2,34392,14.06,74512.0,9.21,-29.13,-29.13,0,*78
1487246557.45,34393,14.06,74516.3,9.21,-28.59,-28.59,0,*79
1487246558.71,34394,14.06,74514.8,9.21,-28.05,-28.05,0,*7E
1487246559.94,34395,14.06,74514.3,9.21,-27.83,-27.89,0,*75
1487246561.18,34396,14.06,74516.0,9.25,-27.83,-27.83,0,*78
1487246562.4,34397,14.06,74514.5,9.25,-28.47,-28.53,0,*7C
1487246563.63,34398,14.06,74516.0,9.25,-27.93,-28.05,0,*76
1487246564.87,34399,14.06,74514.3,9.25,-27.83,-27.83,0,*77
1487246566.09,34400,14.06,74514.8,9.31,-27.89,-27.93,0,*7E
1487246567.32,34401,14.06,74512.3,9.27,-28.31,-28.31,0,*73
1487246568.57,34402,14.06,74512.3,9.31,-28.31,-28.43,0,*72
1487246569.84,34403,14.06,74510.8,9.31,-28.59,-28.59,0,*76
1487246571.04,34404,14.06,74508.3,9.33,-28.53,-28.53,0,*73
1487246572.25,34405,14.06,74510.5,9.33,-28.37,-28.53,0,*70
1487246573.52,34406,14.06,74510.8,9.35,-28.43,-28.43,0,*77
1487246574.75,34407,14.06,74506.3,9.35,-28.97,-29.13,0,*7B
1487246575.96,34408,14.06,74510.8,9.33,-29.57,-29.61,0,*7A
1487246577.23,34409,14.06,74508.8,9.35,-29.89,-30.05,0,*74
1487246578.45,34410,14.06,74504.8,9.31,-30.11,-30.23,0,*75
1487246579.74,34411,14.06,74506.5,9.27,-29.89,-30.01,0,*7A
1487246580.97,34412,14.06,74510.8,9.33,-29.61,-29.89,0,*72
1487246582.23,34413,14.06,74510.8,9.27,-29.51,-29.67,0,*75
1487246583.51,34414,14.06,74508.8,9.27,-29.89,-30.01,0,*7F
1487246584.76,34415,14.06,74510.8,9.27,-29.01,-28.97,0,*78
1487246585.99,34416,14.06,74510.8,9.27,-28.69,-28.85,0,*77
1487246587.24,34417,14.06,74510.0,9.27,-29.23,-29.35,0,*73
1487246588.5,34418,14.06,74510.5,9.27,-29.51,-29.83,0,*74
1487246589.74,34419,14.06,74512.8,9.25,-29.39,-29.67,0,*73
1487246591.0,34420,14.06,74514.0,9.25,-29.35,-29.35,0,*72
1487246592.22,34421,14.06,74514.8,9.25,-28.69,-28.79,0,*72
1487246593.44,34422,14.06,74508.8,9.25,-28.79,-29.07,0,*78
1487246594.68,34423,14.06,74514.5,9.25,-28.47,-28.47,0,*71
1487246595.96,34424,14.06,74514.3,9.27,-28.21,-28.47,0,*74
1487246597.22,34425,14.06,74518.0,9.27,-28.21,-28.31,0,*74
1487246598.46,34426,14.06,74514.8,9.27,-28.31,-28.47,0,*77
1487246599.71,34427,14.06,74518.5,9.27,-28.47,-28.53,0,*72
1487246600.96,34428,14.06,74518.0,9.31,-28.09,-28.15,0,*72
1487246602.23,34429,14.06,74514.8,9.31,-28.59,-28.75,0,*70
1487246603.5,34430,14.06,74516.3,9.31,-28.25,-28.47,0,*72
1487246604.75,34431,14.06,74514.3,9.31,-28.31,-28.47,0,*76
1487246605.99,34432,14.06,74516.0,9.31,-28.31,-28.59,0,*7A
1487246607.24,34433,14.06,74518.0,9.33,-28.43,-28.59,0,*7C
1487246608.45,34434,14.0,74512.0,9.33,-28.53,-28.85,0,*7B
1487246609.72,34435,14.06,74516.3,9.31,-28.47,-28.63,0,*75
1487246610.94,34436,14.06,74516.5,9.33,-29.07,-29.29,0,*7E
1487246612.18,34437,14.06,74520.3,9.33,-29.29,-29.73,0,*7C
1487246613.46,34438,14.06,74520.0,9.35,-28.09,-28.25,0,*74
1487246614.71,34439,14.06,74516.5,9.35,-28.37,-28.59,0,*73
1487246615.93,34440,14.06,74518.8,9.33,-28.97,-29.29,0,*77
1487246617.15,34441,14.06,74518.0,9.33,-29.07,-29.39,0,*7F
1487246618.4,34442,14.06,74516.0,9.33,-28.43,-28.59,0,*7A
1487246619.64,34443,14.06,74522.5,9.31,-27.89,-28.09,0,*75
1487246620.87,34444,14.06,74522.3,9.31,-27.71,-27.89,0,*72
1487246622.12,34445,14.06,74516.0,9.33,-28.09,-28.25,0,*78
1487246623.32,34446,14.06,74516.5,9.33,-27.89,-27.93,0,*7E
1487246624.52,34447,14.06,74520.0,9.33,-27.67,-27.89,0,*74
1487246625.77,34448,14.06,74518.5,9.35,-27.71,-27.83,0,*70
1487246626.96,34449,14.06,74520.3,9.37,-27.51,-27.89,0,*7B
1487246628.18,34450,14.06,74520.3,9.37,-27.89,-27.99,0,*77
1487246629.41,34451,14.06,74516.8,9.37,-28.05,-28.37,0,*76
1487246630.68,34452,14.06,74516.5,9.39,-28.05,-28.21,0,*7C
1487246631.94,34453,14.06,74516.5,9.39,-28.05,-28.15,0,*7A
1487246633.13,34454,14.06,74516.0,9.37,-28.31,-28.53,0,*76
1487246634.37,34455,14.06,74524.0,9.35,-28.43,-28.69,0,*79
1487246635.63,34456,14.06,74516.0,9.39,-28.47,-28.79,0,*73
1487246636.87,34457,14.06,74518.3,9.39,-28.31,-28.47,0,*7E
1487246638.09,34458,14.06,74518.3,9.37,-28.31,-28.47,0,*7F
1487246639.34,34459,14.06,74518.8,9.39,-28.85,-28.91,0,*74
1487246640.59,34460,14.06,74520.3,9.39,-28.21,-28.37,0,*7C
1487246641.79,34461,14.06,74522.8,9.37,-28.15,-28.31,0,*72
1487246643.01,34462,14.06,74520.0,9.37,-28.63,-28.85,0,*7F
1487246644.29,34463,14.0,74512.0,9.39,-28.05,-28.21,0,*7E
1487246645.54,34464,14.06,74520.5,9.37,-27.99,-28.05,0,*7B
1487246646.81,34465,14.06,74518.8,9.39,-28.05,-28.05,0,*7E
1487246648.08,34466,14.06,74518.3,9.39,-27.83,-27.99,0,*76
1487246649.35,34467,14.06,74522.0,9.39,-27.99,-28.05,0,*76
1487246650.63,34468,14.06,74518.0,9.39,-28.21,-28.21,0,*73
1487246651.91,34469,14.06,74516.8,9.41,-28.09,-27.99,0,*7B
1487246653.16,34470,14.06,74520.0,9.43,-28.09,-28.09,0,*77
1487246654.36,34471,14.06,74518.8,9.43,-27.77,-27.93,0,*7C
1487246655.57,34472,14.06,74516.0,9.43,-27.89,-27.89,0,*75
1487246656.77,34473,14.06,74516.8,9.43,-27.93,-27.93,0,*74
1487246658.03,34474,14.06,74516.0,9.43,-28.21,-28.25,0,*77
1487246659.28,34475,14.06,74516.8,9.41,-27.93,-28.09,0,*7C
1487246660.51,34476,14.06,74518.0,9.41,-27.77,-27.93,0,*79
1487246661.71,34477,14.06,74518.0,9.43,-27.89,-27.89,0,*70
1487246662.92,34478,14.06,74516.0,9.43,-27.67,-27.77,0,*7E
1487246664.12,34479,14.06,74516.8,9.43,-27.67,-27.77,0,*7F
1487246665.32,34480,14.06,74516.5,9.43,-27.89,-27.93,0,*73
1487246666.57,34481,14.06,74520.0,9.47,-28.47,-28.63,0,*7B
1487246667.79,34482,14.06,74518.0,9.45,-28.69,-28.97,0,*7D
1487246669.05,34483,14.06,74516.0,9.43,-28.21,-28.43,0,*7F
1487246670.28,34484,14.06,74520.3,9.43,-28.59,-28.69,0,*7F
1487246671.51,34485,14.06,74518.0,9.43,-28.21,-28.37,0,*7A
1487246672.71,34486,14.06,74518.8,9.43,-27.93,-27.89,0,*75
1487246673.92,34487,14.06,74518.3,9.43,-27.67,-27.77,0,*7E
1487246675.12,34488,14.06,74514.0,9.43,-27.67,-27.71,0,*77
1487246676.33,34489,14.06,74520.0,9.43,-27.67,-27.77,0,*70
1487246677.55,34490,14.06,74518.8,9.43,-27.35,-27.55,0,*7F
1487246678.76,34491,14.06,74518.5,9.43,-27.93,-27.93,0,*78
1487246680.03,34492,14.06,74516.5,9.45,-28.59,-28.79,0,*7F
1487246681.3,34493,14.06,74518.3,9.45,-28.75,-29.13,0,*7D
1487246682.54,34494,14.06,74516.0,9.45,-28.53,-28.75,0,*7F
1487246683.79,34495,14.06,74518.8,9.45,-28.53,-28.75,0,*7E
1487246685.05,34496,14.06,74518.8,9.45,-28.21,-28.37,0,*7E
1487246686.31,34497,14.06,74518.8,9.43,-28.09,-28.25,0,*70
1487246687.59,34498,14.06,74518.8,9.45,-28.09,-28.25,0,*79
1487246688.87,34499,14.06,74518.8,9.45,-28.25,-28.43,0,*76
1487246690.07,34500,14.06,74518.0,9.43,-27.71,-27.93,0,*7D
1487246691.3,34501,14.06,74516.0,9.43,-28.21,-28.37,0,*77
1487246692.52,34502,14.06,74518.0,9.45,-27.71,-27.93,0,*79
1487246693.75,34503,14.06,74516.8,9.45,-27.55,-27.71,0,*72
1487246694.98,34504,14.06,74516.0,9.47,-27.61,-27.71,0,*70
1487246696.21,34505,14.06,74512.3,9.45,-27.89,-27.89,0,*72
1487246697.49,34506,14.06,74516.5,9.45,-28.05,-28.21,0,*77
1487246698.77,34507,14.06,74514.8,9.45,-28.21,-28.43,0,*74
1487246700.06,34508,14.06,74518.3,9.45,-28.21,-28.25,0,*7B
1487246701.28,34509,14.06,74514.8,9.45,-27.77,-27.93,0,*74
1487246702.51,34510,14.06,74518.5,9.45,-27.77,-27.93,0,*7C
1487246703.76,34511,14.06,74516.0,9.45,-27.39,-27.55,0,*7D
1487246704.96,34512,14.06,74514.3,9.47,-28.15,-28.31,0,*70
1487246706.21,34513,14.06,74514.3,9.45,-28.25,-28.37,0,*76
1487246707.47,34514,14.06,74516.3,9.45,-28.59,-28.69,0,*71
1487246708.69,34515,14.06,74514.8,9.47,-28.47,-28.53,0,*74
1487246709.93,34516,14.06,74512.3,9.45,-28.69,-28.75,0,*7D
1487246711.22,34517,14.06,74510.8,9.45,-28.25,-28.25,0,*71
1487246712.5,34518,14.06,74512.3,9.45,-28.21,-28.43,0,*7A
1487246713.77,34519,14.06,74512.5,9.45,-28.25,-28.43,0,*7F
1487246715.02,34520,14.06,74510.8,9.45,-28.43,-28.69,0,*7D
1487246716.3,34521,14.06,74514.5,9.45,-28.43,-28.59,0,*7F
1487246717.53,34522,14.06,74514.8,9.43,-28.37,-28.59,0,*79
1487246718.78,34523,14.06,74514.8,9.41,-28.31,-28.47,0,*73
1487246719.98,34524,14.06,74518.8,9.43,-27.51,-27.51,0,*77
1487246721.19,34525,14.06,74516.8,9.43,-27.55,-27.71,0,*70
1487246722.47,34526,14.06,74516.0,9.45,-28.21,-28.21,0,*73
1487246723.72,34527,14.06,74512.8,9.45,-28.37,-28.43,0,*71
1487246724.95,34528,14.06,74518.5,9.43,-27.89,-28.05,0,*70
1487246726.18,34529,14.06,74516.5,9.43,-28.43,-28.53,0,*7B
1487246727.41,34530,14.06,74516.3,9.45,-27.77,-27.89,0,*75
1487246728.67,34531,14.06,74518.0,9.45,-28.21,-28.37,0,*72
1487246729.89,34532,14.06,74518.0,9.45,-27.67,-27.77,0,*77
1487246731.12,34533,14.06,74520.0,9.45,-27.77,-27.93,0,*7D
1487246732.35,34534,14.06,74516.3,9.45,-27.67,-27.89,0,*70
1487246733.63,34535,14.06,74518.8,9.45,-27.35,-27.39,0,*7D
1487246734.88,34536,14.06,74516.5,9.47,-26.81,-26.97,0,*77
1487246736.13,34537,14.06,74520.0,9.45,-27.93,-28.09,0,*7F
1487246737.38,34538,14.06,74520.8,9.45,-28.69,-28.75,0,*71
1487246738.63,34539,14.06,74518.0,9.43,-29.13,-29.39,0,*73
1487246739.9,34540,14.06,74518.3,9.41,-29.01,-29.29,0,*7D
1487246741.16,34541,14.06,74522.0,9.41,-28.79,-28.85,0,*75
1487246742.38,34542,14.06,74520.0,9.43,-28.75,-29.07,0,*73
1487246743.63,34543,14.06,74516.5,9.41,-29.17,-29.45,0,*73
1487246744.89,34544,14.06,74516.8,9.41,-29.35,-29.79,0,*7B
1487246746.17,34545,14.06,74520.0,9.39,-29.51,-29.89,0,*78
1487246747.43,34546,14.06,74518.5,9.39,-29.51,-29.83,0,*71
1487246748.67,34547,14.06,74522.3,9.37,-28.91,-29.17,0,*7E
1487246749.9,34548,14.06,74518.5,9.37,-28.31,-28.63,0,*79
1487246751.15,34549,14.06,74518.3,9.41,-28.97,-29.35,0,*77
1487246752.4,34550,14.06,74520.0,9.37,-28.91,-29.39,0,*74
1487246753.62,34551,14.06,74520.8,9.35,-29.45,-29.61,0,*72
1487246754.87,34552,14.06,74516.5,9.35,-28.85,-29.13,0,*79
1487246756.09,34553,14.06,74518.8,9.35,-29.45,-29.79,0,*79
1487246757.34,34554,14.06,74518.8,9.33,-30.17,-30.51,0,*75
1487246758.54,34555,14.06,74522.0,9.33,-29.79,-30.11,0,*70
1487246759.76,34556,14.06,74520.0,9.31,-29.61,-29.95,0,*7C
1487246761.03,34557,14.06,74518.0,9.31,-28.43,-28.47,0,*72
1487246762.3,34558,14.06,74520.8,9.31,-27.99,-28.09,0,*7F
1487246763.55,34559,14.06,74518.0,9.31,-27.61,-27.77,0,*7F
1487246764.78,34560,14.06,74516.3,9.31,-27.55,-27.89,0,*73
1487246765.99,34561,14.06,74520.8,9.31,-27.55,-27.77,0,*73
1487246767.25,34562,14.06,74518.3,9.33,-28.05,-28.05,0,*72
1487246768.48,34563,14.06,74518.0,9.33,-28.09,-28.37,0,*7E
1487246769.72,34564,14.06,74514.0,9.33,-28.43,-28.75,0,*71
1487246770.91,34565,14.06,74520.8,9.33,-29.07,-29.23,0,*73
1487246772.13,34566,14.06,74514.3,9.33,-29.29,-29.61,0,*7A
1487246773.4,34567,14.06,74518.3,9.31,-29.01,-29.29,0,*7F
1487246774.64,34568,14.06,74518.3,9.31,-29.29,-29.61,0,*76
1487246775.93,34569,14.06,74518.3,9.27,-29.39,-29.89,0,*77
1487246777.21,34570,14.06,74516.5,9.27,-29.73,-30.01,0,*79
1487246778.49,34571,14.06,74514.3,9.27,-29.39,-29.73,0,*7B
1487246779.71,34572,14.06,74518.3,9.27,-28.97,-29.23,0,*78
1487246780.93,34573,14.06,74512.0,9.25,-28.63,-28.69,0,*7F
1487246782.18,34574,14.06,74516.8,9.25,-28.91,-29.13,0,*79
1487246783.43,34575,14.06,74518.0,9.23,-28.85,-29.13,0,*7B
1487246784.66,34576,14.06,74514.8,9.23,-29.57,-29.95,0,*78
1487246785.91,34577,14.06,74518.8,9.23,-29.89,-30.23,0,*7F
1487246787.14,34578,14.06,74518.8,9.21,-30.51,-30.67,0,*7F
1487246788.36,34579,14.06,74520.3,9.21,-29.07,-29.29,0,*77
1487246789.64,34580,14.06,74518.5,9.19,-28.63,-28.79,0,*7D
1487246790.89,34581,14.06,74518.5,9.21,-28.25,-28.43,0,*7C
1487246792.12,34582,14.06,74522.8,9.21,-28.85,-29.01,0,*72
1487246793.35,34583,14.06,74520.0,9.21,-28.59,-28.85,0,*7F
1487246794.6,34584,14.06,74516.8,9.21,-29.01,-29.13,0,*7A
1487246795.84,34585,14.06,74518.0,9.19,-28.97,-29.17,0,*7A
1487246797.07,34586,14.06,74516.5,9.21,-28.85,-29.13,0,*75
1487246798.32,34587,14.06,74516.0,9.21,-28.05,-28.09,0,*76
1487246799.57,34588,14.06,74516.8,9.21,-27.19,-27.35,0,*7B
1487246800.8,34589,14.06,74518.3,9.21,-27.07,-27.23,0,*72
1487246802.01,34590,14.06,74520.3,9.21,-27.67,-27.89,0,*7C
1487246803.2,34591,14.06,74516.0,9.25,-27.77,-27.93,0,*73
1487246804.46,34592,14.06,74518.3,9.23,-28.15,-28.25,0,*7F
1487246805.72,34593,14.06,74518.5,9.23,-29.13,-29.29,0,*74
1487246806.95,34594,14.06,74516.0,9.25,-29.07,-29.35,0,*7D
1487246808.2,34595,14.06,74516.8,9.23,-30.05,-30.33,0,*7E
1487246809.43,34596,14.06,74516.3,9.23,-29.95,-30.23,0,*7D
1487246810.66,34597,14.06,74518.3,9.21,-29.01,-29.07,0,*7D
1487246811.93,34598,14.06,74514.3,9.19,-28.75,-28.91,0,*75
1487246813.16,34599,14.06,74518.3,9.21,-28.25,-28.37,0,*76
1487246814.42,34600,14.06,74518.5,9.21,-28.59,-28.59,0,*76
1487246815.67,34601,14.06,74514.3,9.19,-28.79,-28.97,0,*7C
1487246816.9,34602,14.06,74518.3,9.21,-28.59,-28.85,0,*75
1487246818.15,34603,14.06,74516.0,9.21,-28.63,-29.01,0,*70
1487246819.41,34604,14.06,74516.3,9.19,-29.51,-29.95,0,*71
1487246820.61,34605,14.06,74520.3,9.21,-29.61,-29.95,0,*78
1487246821.84,34606,14.06,74518.0,9.19,-29.61,-29.95,0,*70
1487246823.07,34607,14.06,74518.0,9.19,-29.83,-30.11,0,*79
1487246824.29,34608,14.06,74518.3,9.19,-29.95,-30.11,0,*71
1487246825.52,34609,14.06,74516.3,9.19,-29.83,-29.95,0,*73
1487246826.72,34610,14.06,74516.8,9.17,-30.33,-30.45,0,*73
1487246827.96,34611,14.06,74518.0,9.15,-30.45,-30.55,0,*70
1487246829.21,34612,14.06,74514.8,9.15,-30.45,-30.55,0,*73
1487246830.44,34613,14.06,74518.8,9.13,-31.11,-31.17,0,*73
1487246831.7,34614,14.06,74516.0,9.13,-30.95,-31.11,0,*7F
1487246832.94,34615,14.06,74518.5,9.11,-30.67,-30.67,0,*71
1487246834.18,34616,14.06,74518.8,9.11,-30.67,-30.83,0,*78
1487246835.45,34617,14.06,74518.0,9.05,-30.95,-30.95,0,*76
1487246836.69,34618,14.06,74520.0,9.05,-31.05,-31.39,0,*76
1487246837.91,34619,14.06,74520.0,9.03,-30.83,-30.95,0,*79
1487246839.15,34620,14.06,74516.8,9.01,-30.39,-30.45,0,*7D
1487246840.44,34621,14.06,74518.8,9.01,-29.35,-29.35,0,*77
1487246841.67,34622,14.06,74514.5,9.03,-28.91,-28.85,0,*73
1487246842.86,34623,14.06,74516.3,9.03,-29.61,-29.61,0,*77
1487246844.08,34624,14.06,74516.3,9.03,-30.27,-30.55,0,*75
1487246845.3,34625,14.06,74516.3,8.99,-29.73,-29.79,0,*79
1487246846.51,34626,14.06,74516.3,8.99,-30.45,-30.51,0,*75
1487246847.78,34627,14.06,74514.3,9.01,-30.67,-30.77,0,*70
1487246849.06,34628,14.06,74516.8,8.97,-30.73,-30.73,0,*70
1487246850.34,34629,14.06,74512.5,8.97,-30.73,-30.89,0,*74
1487246851.61,34630,14.06,74512.8,8.97,-31.23,-31.39,0,*72
1487246852.86,34631,14.06,74514.0,8.93,-30.95,-31.01,0,*70
1487246854.08,34632,14.06,74514.3,8.93,-30.11,-30.23,0,*7E
1487246855.33,34633,14.06,74512.0,8.93,-29.89,-29.95,0,*73
1487246856.58,34634,14.06,74512.0,8.93,-28.85,-28.75,0,*76
1487246857.82,34635,14.06,74512.3,8.93,-27.83,-27.77,0,*73
1487246859.04,34636,14.06,74510.3,8.95,-27.99,-27.77,0,*7D
1487246860.26,34637,14.06,74514.3,8.95,-28.31,-28.43,0,*79
1487246861.47,34638,14.06,74510.5,8.95,-27.83,-27.77,0,*78
1487246862.69,34639,14.06,74512.5,8.97,-27.89,-27.77,0,*71
1487246863.94,34640,14.06,74514.3,8.99,-28.63,-28.59,0,*79
1487246865.16,34641,14.06,74510.5,8.99,-29.23,-29.29,0,*7B
1487246866.38,34642,14.06,74514.3,8.97,-29.45,-29.79,0,*73
1487246867.58,34643,14.06,74512.5,8.99,-29.45,-29.45,0,*73
1487246868.85,34644,14.06,74514.5,8.97,-29.29,-29.39,0,*7B
1487246870.08,34645,14.06,74510.0,8.97,-29.61,-29.67,0,*7D
1487246871.29,34646,14.06,74512.0,8.97,-28.97,-28.97,0,*78
1487246872.57,34647,14.06,74510.5,8.97,-28.75,-28.63,0,*7E
1487246873.79,34648,14.06,74512.5,8.99,-28.91,-28.97,0,*7E
1487246875.06,34649,14.06,74512.0,8.97,-28.91,-28.79,0,*71
1487246876.3,34650,14.06,74510.8,8.99,-28.47,-28.47,0,*71
1487246877.52,34651,14.06,74514.5,8.99,-29.07,-29.13,0,*75
1487246878.76,34652,14.06,74510.5,8.97,-28.37,-28.43,0,*7E
1487246880.02,34653,14.06,74514.3,8.99,-28.05,-28.21,0,*74
1487246881.25,34654,14.06,74512.5,9.01,-28.15,-28.15,0,*75
1487246882.47,34655,14.06,74508.3,9.01,-28.15,-28.15,0,*74
1487246883.75,34656,14.06,74508.0,9.01,-28.59,-28.59,0,*77
1487246885.0,34657,14.06,74510.3,9.03,-28.91,-29.01,0,*7C
1487246886.28,34658,14.06,74508.8,9.01,-29.17,-29.35,0,*79
1487246887.53,34659,14.06,74510.5,9.01,-28.85,-29.01,0,*75
1487246888.76,34660,14.06,74506.8,9.01,-28.85,-28.85,0,*72
1487246889.99,34661,14.06,74506.5,8.99,-28.37,-28.43,0,*70
1487246891.27,34662,14.06,74510.5,9.01,-28.05,-28.05,0,*70
1487246892.52,34663,14.06,74504.3,9.03,-28.21,-28.05,0,*75
1487246893.72,34664,14.06,74506.3,9.03,-27.71,-27.71,0,*74
1487246894.94,34665,14.06,74504.8,9.03,-28.37,-28.43,0,*76
1487246896.16,34666,14.06,74504.8,9.03,-27.89,-27.83,0,*7C
1487246897.38,34667,14.06,74508.8,9.03,-28.43,-28.53,0,*76
1487246898.61,34668,14.06,74504.5,9.05,-28.47,-28.53,0,*7B
1487246899.87,34669,14.06,74504.8,9.09,-28.43,-28.43,0,*73
1487246901.14,34670,14.06,74510.0,9.05,-28.63,-28.63,0,*77
1487246902.39,34671,14.06,74504.5,9.05,-28.53,-28.63,0,*75
1487246903.64,34672,14.06,74510.0,9.05,-27.93,-27.99,0,*7F
1487246904.88,34673,14.06,74508.3,9.05,-27.77,-27.83,0,*7F